Flag for Canada Weather past 2 weeks in Edmonton, Alberta, Canada

Now
39 °F

Chilly.


Feels Like: 31 °F
Forecast: 33 / 41 °F
Wind: 13 mph from East

Location: Edmonton Municipal

Current Time: Apr 24, 2015 at 10:31:11 PM

Latest Report: Apr 24, 2015 at 9:00 PM


Visibility: N/A

Pressure: 29.87 "Hg

Humidity: 71%

Dew point: 30 °F

Location of EdmontonLocation

Historic Weather in Edmonton — Graph

°F

Edmonton temperature yesterday

Maximum temperature yesterday: 45 °F (at 6:00 PM)
Minimum temperature yesterday: 38 °F (at 2:00 AM)
Average temperature yesterday: 41 °F

Past Weeks' High & Low Weather Summary

 TemperatureHumidityPressure
High72 °F (Apr 22, 3:00 PM)100% (Apr 24, 6:00 AM)30.34 "Hg (Apr 24, 6:00 AM)
Low29 °F (Apr 19, 7:00 AM)13% (Apr 10, 4:00 PM)29.29 "Hg (Apr 11, 12:00 PM)
Average46 °F42%29.88 "Hg
* Reported Apr 9 9:00 PM — Apr 24 9:00 PM, Edmonton, Weather by CustomWeather, © 2015

Note: Actual official high and low records may vary slightly from our data, if they occured in-between our weather recording intervals... More about our weather records

Advertising

Edmonton weather history for previous 24 hours

 ConditionsComfort  
Time TempWeatherWind HumidityBarometerVisibility
9:00 PM
Fri, Apr 24
39 °FChilly.13 mph71%29.87 "HgN/A
8:00 PM39 °FChilly.13 mph72%29.85 "HgN/A
7:00 PM39 °FChilly.14 mph78%29.85 "HgN/A
5:00 PM41 °FQuite cool.14 mph72%29.82 "HgN/A
4:00 PM43 °FQuite cool.10 mph65%29.80 "HgN/A
3:00 PM42 °FQuite cool.12 mph72%29.80 "HgN/A
2:00 PM43 °FQuite cool.12 mph71%29.80 "HgN/A
1:00 PM43 °FQuite cool.13 mph72%29.79 "HgN/A
12:00 PM42 °FQuite cool.13 mph75%29.80 "HgN/A
11:00 AM38 °FChilly.9 mph84%29.79 "HgN/A
10:00 AM39 °FChilly.8 mph83%29.79 "HgN/A
9:00 AM36 °FChilly.7 mph93%29.78 "HgN/A
8:00 AM37 °FChilly.5 mph90%29.79 "HgN/A
7:00 AM36 °FChilly.7 mph93%29.78 "HgN/A
6:00 AM33 °FChilly.6 mph100%29.77 "HgN/A
5:00 AM35 °FChilly.5 mph87%29.77 "HgN/A
4:00 AM36 °FChilly.6 mph91%29.76 "HgN/A
3:00 AM36 °FChilly.5 mph84%29.76 "HgN/A
2:00 AM38 °FChilly.5 mph88%29.76 "HgN/A
1:00 AM37 °FChilly.5 mph88%29.76 "HgN/A
12:00 AM37 °FChilly.3 mph88%29.76 "HgN/A
11:00 PM
Thu, Apr 23
38 °FChilly.2 mph86%29.76 "HgN/A
10:00 PM38 °FChilly.3 mph83%29.75 "HgN/A
Weather by CustomWeather, © 2015

See weather overviewHow to use our weather pages